User: anonymous   Login
Location: Unspecified
(0.0000°N, 0.0000°E)
Time: 16:54:52
(UTC+00:00)
Language:

STARLINK-1014 - Orbit

View from above orbital plane
View from above orbital plane
View from above satellite
View from above satellite

Ground track
Ground track

The orbit data is extracted from the following two-line orbital elements,

1 44720C 19074H   21025.31093369 -.00015335  00000-0 -10293-2 0   258
2 44720  53.0358 298.5091 0000916 162.3841 158.4522 15.06349219    16
Epoch (UTC): 25 January 2021 07:27:44
Eccentricity: 0.0000916
inclination: 53.0358°
perigee height: 547 km
apogee height: 548 km
right ascension of ascending node: 298.5091°
argument of perigee: 162.3841°
revolutions per day: 15.06349219
mean anomaly at epoch: 158.4522°
orbit number at epoch: 1

The dashed part of the orbit path shows where the satellite is in the earth's shadow,  

DLR